When you browse on this site, cookies collect data to enhance your experience and personalize the content and advertising you see.
Visit our Privacy Policy to learn more. By continuing to use the site, you agree to this use of cookies and data.
  • En España
  • Lista de países
  • Para 7 días
  • Temperatura del agua
  • El tiempo en el mapa
  • Informadores
  • user-avatar
    Iniciar sesión

    Tiempo cada hora La Laja

    Hoy, 27 Febrero, Jueves

    Tiempo Temperatura Precipitaciones Viento Presión Humedad
    00:00 +15°C° 0 mm 2 mps 752 mmHg 72%
    01:00 +14°C° 0 mm 1 mps 752 mmHg 78%
    02:00 +13°C° 0 mm 1 mps 752 mmHg 81%
    03:00 +13°C° 0 mm 1 mps 751 mmHg 84%
    04:00 +12°C° 0 mm 2 mps 751 mmHg 86%
    05:00 +13°C° 0 mm 1 mps 752 mmHg 82%
    06:00 +14°C° 0 mm 1 mps 752 mmHg 77%
    07:00 +16°C° 0 mm 1 mps 752 mmHg 69%
    08:00 +20°C° 0 mm 1 mps 753 mmHg 57%
    09:00 +24°C° 0 mm 2 mps 753 mmHg 45%
    10:00 +28°C° 0 mm 2 mps 753 mmHg 33%
    11:00 +30°C° 0 mm 2 mps 753 mmHg 28%
    12:00 +32°C° 0 mm 2 mps 752 mmHg 24%
    13:00 +35°C° 0 mm 2 mps 752 mmHg 19%
    14:00 +35°C° 0 mm 3 mps 752 mmHg 20%
    15:00 +35°C° 0 mm 3 mps 752 mmHg 21%
    16:00 +34°C° 0 mm 3 mps 752 mmHg 21%
    17:00 +30°C° 0 mm 3 mps 752 mmHg 30%
    18:00 +28°C° 0 mm 3 mps 752 mmHg 38%
    19:00 +25°C° 0 mm 3 mps 753 mmHg 47%
    20:00 +22°C° 0 mm 3 mps 753 mmHg 51%
    21:00 +21°C° 0 mm 3 mps 753 mmHg 56%
    22:00 +20°C° 0 mm 3 mps 754 mmHg 61%
    23:00 +19°C° 0 mm 3 mps 753 mmHg 65%

    Mañana, 28 Febrero, Viernes

    Tiempo Temperatura Precipitaciones Viento Presión Humedad
    00:00 +18°C° 0 mm 3 mps 753 mmHg 69%
    01:00 +18°C° 0 mm 3 mps 753 mmHg 73%
    02:00 +17°C° 0 mm 3 mps 753 mmHg 75%
    03:00 +16°C° 0 mm 3 mps 753 mmHg 77%
    04:00 +16°C° 0 mm 3 mps 753 mmHg 79%
    05:00 +17°C° 0 mm 3 mps 753 mmHg 74%
    06:00 +18°C° 0 mm 3 mps 753 mmHg 69%
    07:00 +19°C° 0 mm 3 mps 753 mmHg 64%
    08:00 +22°C° 0 mm 3 mps 754 mmHg 54%
    09:00 +26°C° 0 mm 3 mps 754 mmHg 43%
    10:00 +29°C° 0 mm 4 mps 754 mmHg 32%
    11:00 +32°C° 0 mm 4 mps 753 mmHg 27%
    12:00 +33°C° 0 mm 4 mps 753 mmHg 22%
    13:00 +35°C° 0 mm 4 mps 753 mmHg 17%
    14:00 +35°C° 0 mm 4 mps 753 mmHg 16%
    15:00 +35°C° 0 mm 4 mps 752 mmHg 16%
    16:00 +35°C° 0 mm 4 mps 752 mmHg 16%
    17:00 +31°C° 0 mm 3 mps 752 mmHg 23%
    18:00 +28°C° 0 mm 3 mps 753 mmHg 30%
    19:00 +24°C° 0 mm 3 mps 753 mmHg 37%
    20:00 +23°C° 0 mm 2 mps 753 mmHg 43%
    21:00 +20°C° 0 mm 2 mps 753 mmHg 49%
    22:00 +18°C° 0 mm 2 mps 753 mmHg 55%
    23:00 +17°C° 0 mm 2 mps 753 mmHg 55%

    Pasado mañana, 29 Febrero, Sábado

    Tiempo Temperatura Precipitaciones Viento Presión Humedad
    00:00 +16°C° 0 mm 2 mps 752 mmHg 56%
    01:00 +15°C° 0 mm 2 mps 752 mmHg 57%
    02:00 +14°C° 0 mm 2 mps 752 mmHg 58%
    03:00 +14°C° 0 mm 1 mps 752 mmHg 59%
    04:00 +13°C° 0 mm 1 mps 751 mmHg 61%
    05:00 +14°C° 0 mm 1 mps 751 mmHg 57%
    06:00 +15°C° 0 mm 1 mps 751 mmHg 53%
    07:00 +16°C° 0 mm 1 mps 751 mmHg 48%
    08:00 +22°C° 0 mm 1 mps 751 mmHg 39%
    09:00 +27°C° 0 mm 1 mps 751 mmHg 30%
    10:00 +32°C° 0 mm 1 mps 751 mmHg 21%
    11:00 +35°C° 0 mm 1 mps 751 mmHg 17%
    12:00 +39°C° 0 mm 1 mps 750 mmHg 13%
    13:00 +42°C° 0 mm 1 mps 750 mmHg 9%
    14:00 +41°C° 0 mm 2 mps 750 mmHg 10%
    15:00 +40°C° 0 mm 3 mps 750 mmHg 11%
    16:00 +38°C° 0 mm 4 mps 749 mmHg 12%
    17:00 +34°C° 0 mm 3 mps 750 mmHg 19%
    18:00 +29°C° 0 mm 3 mps 750 mmHg 27%
    19:00 +24°C° 0 mm 2 mps 750 mmHg 34%
    20:00 +21°C° 0 mm 2 mps 750 mmHg 41%
    21:00 +20°C° 0 mm 1 mps 750 mmHg 47%
    22:00 +18°C° 0 mm 1 mps 751 mmHg 53%
    23:00 +15°C° 0 mm 0 mps 750 mmHg 56%

    1 Marzo, Domingo

    Tiempo Temperatura Precipitaciones Viento Presión Humedad
    00:00 +14°C° 0 mm 0 mps 750 mmHg 59%
    01:00 +14°C° 0 mm 0 mps 750 mmHg 62%
    02:00 +13°C° 0 mm 0 mps 750 mmHg 66%
    03:00 +12°C° 0 mm 0 mps 750 mmHg 69%
    04:00 +11°C° 0 mm 0 mps 750 mmHg 73%
    05:00 +13°C° 0 mm 0 mps 750 mmHg 68%
    06:00 +14°C° 0 mm 0 mps 751 mmHg 63%
    07:00 +16°C° 0 mm 0 mps 751 mmHg 58%
    08:00 +21°C° 0 mm 0 mps 751 mmHg 47%
    09:00 +26°C° 0 mm 0 mps 751 mmHg 36%
    10:00 +33°C° 0 mm 1 mps 751 mmHg 25%
    11:00 +34°C° 0 mm 1 mps 751 mmHg 21%
    12:00 +37°C° 0 mm 2 mps 751 mmHg 18%
    13:00 +39°C° 0 mm 2 mps 751 mmHg 14%
    14:00 +37°C° 0 mm 3 mps 751 mmHg 16%
    15:00 +36°C° 0 mm 3 mps 751 mmHg 18%
    16:00 +35°C° 0 mm 4 mps 751 mmHg 19%
    17:00 +30°C° 0 mm 3 mps 751 mmHg 31%
    18:00 +26°C° 0 mm 2 mps 752 mmHg 43%
    19:00 +21°C° 0 mm 2 mps 752 mmHg 55%
    20:00 +20°C° 0 mm 1 mps 752 mmHg 63%
    21:00 +18°C° 0 mm 1 mps 752 mmHg 71%
    22:00 +15°C° 0 mm 1 mps 753 mmHg 79%
    23:00 +15°C° 0 mm 1 mps 752 mmHg 80%

    2 Marzo, Lunes

    Tiempo Temperatura Precipitaciones Viento Presión Humedad
    00:00 +14°C° 0 mm 1 mps 752 mmHg 82%
    01:00 +14°C° 0 mm 1 mps 752 mmHg 83%
    02:00 +13°C° 0 mm 1 mps 752 mmHg 84%
    03:00 +13°C° 0 mm 1 mps 751 mmHg 84%
    04:00 +13°C° 0 mm 1 mps 751 mmHg 85%
    05:00 +14°C° 0 mm 1 mps 751 mmHg 78%
    06:00 +15°C° 0 mm 1 mps 752 mmHg 71%
    07:00 +18°C° 0 mm 1 mps 752 mmHg 65%
    08:00 +22°C° 0 mm 1 mps 752 mmHg 51%
    09:00 +27°C° 0 mm 2 mps 751 mmHg 37%
    10:00 +32°C° 0 mm 2 mps 751 mmHg 23%
    11:00 +35°C° 0 mm 2 mps 751 mmHg 20%
    12:00 +37°C° 0 mm 2 mps 751 mmHg 17%
    13:00 +39°C° 0 mm 2 mps 751 mmHg 13%
    14:00 +38°C° 0 mm 2 mps 751 mmHg 15%
    15:00 +38°C° 0 mm 3 mps 751 mmHg 16%
    16:00 +37°C° 0 mm 3 mps 750 mmHg 17%
    17:00 +32°C° 0 mm 2 mps 751 mmHg 25%
    18:00 +28°C° 0 mm 2 mps 751 mmHg 34%
    19:00 +24°C° 0 mm 2 mps 751 mmHg 42%
    20:00 +23°C° 0 mm 1 mps 752 mmHg 47%
    21:00 +21°C° 0 mm 1 mps 752 mmHg 51%
    22:00 +19°C° 0 mm 1 mps 752 mmHg 56%
    23:00 +18°C° 0 mm 1 mps 752 mmHg 61%

    3 Marzo, Martes

    Tiempo Temperatura Precipitaciones Viento Presión Humedad
    00:00 +16°C° 0 mm 1 mps 751 mmHg 66%
    01:00 +15°C° 0 mm 1 mps 751 mmHg 71%
    02:00 +14°C° 0 mm 1 mps 751 mmHg 75%
    03:00 +13°C° 0 mm 1 mps 751 mmHg 80%
    04:00 +12°C° 0 mm 0 mps 751 mmHg 85%
    05:00 +14°C° 0 mm 1 mps 751 mmHg 79%
    06:00 +15°C° 0 mm 1 mps 751 mmHg 74%
    07:00 +16°C° 0 mm 1 mps 751 mmHg 68%
    08:00 +22°C° 0 mm 1 mps 751 mmHg 54%
    09:00 +26°C° 0 mm 1 mps 751 mmHg 40%
    10:00 +31°C° 0 mm 1 mps 751 mmHg 26%
    11:00 +33°C° 0 mm 1 mps 751 mmHg 22%
    12:00 +37°C° 0 mm 2 mps 750 mmHg 18%
    13:00 +39°C° 0 mm 2 mps 750 mmHg 14%
    14:00 +38°C° 0 mm 2 mps 750 mmHg 14%
    15:00 +38°C° 0 mm 2 mps 750 mmHg 15%
    16:00 +37°C° 0 mm 2 mps 749 mmHg 15%
    17:00 +32°C° 0 mm 2 mps 750 mmHg 22%
    18:00 +29°C° 0 mm 2 mps 750 mmHg 28%
    19:00 +25°C° 0 mm 2 mps 751 mmHg 35%
    20:00 +23°C° 0 mm 1 mps 751 mmHg 39%
    21:00 +21°C° 0 mm 1 mps 751 mmHg 42%
    22:00 +19°C° 0 mm 1 mps 751 mmHg 46%
    23:00 +19°C° 0 mm 1 mps 751 mmHg 49%
    Mostrar más